Showing default

FLYLAB 2, 68503

Orbit data source: Space-Track

FLYLAB 2, 68503 is a payload satellite owned by ONERA (FR) in SSO that was launched on Mon, 30 Mar 2026 UTC via an FALCON 9 launch vehicle from the Air Force Western Test Range (AFWTR). Payload-class satellites include a variety of spacecraft equipped with specific instruments for various scientific and technological missions. These include communications satellites like Starlink; space stations such as the ISS; scientific satellites like the Hubble; Earth observation satellites from companies like Planet Labs, Umbra, and HawkEye 360; GPS; miniature CubeSats for education and research; and military/defense satellites.

Loading next visibility...
Identifier
68503, 2026-067CR
Orbit
SSO
Country
Flag of FRFR
Related business
Manufacturer
NanoAvionics
Mission
Operational Civil Technology
Bus & Motor
CUBESAT 6U, Unknown motor
Mass
10 kg wet, ~10 kg dry
Launch date (UTC)
2026-03-30 (5 months ago)
Launch vehicle
FALCON 9
Launch site
Air Force Western Test Range (AFWTR)
Object type
Payload
Rocket body
Debris
Shape & HBR
Box + 4 Pan, 1.0 m
Radar Cross Section
0.139 m², Medium (>0.1 m² and < 1m²)

Expand to show TLE details & history
Last TLE update: 19 hours ago

TLE from 19 hours ago
0 FLYLAB 2
1 68503U 26067CR  26235.35097746  .00001611  00000-0  16808-3 0  9997
2 68503  97.7626 192.3215 0004945 180.4249 179.6966 14.91122046 21720
Epoch: 2026-08-23T08:25Z
TLE epoch observation values (Epoch: 2026-08-23T08:25:24.452Z)
Latitude
-0.00003°
Longitude
94.32134°
Altitude
600.925 km
Speed
7.557 km/s
True Right ascension
12h 49m 17s
True Declination
0° 00' 00"
Sunlit
Object was in daylight at epoch
Visualization orbit readout
Latitude
Unknown
Longitude
Unknown
Altitude
Unknown
Speed
Unknown
Apparent Right ascension
Unknown
Apparent Declination
Unknown
Sunlit
N/A
Visualization observer readout
Local Sidereal Time
18:16:52
Azimuth
Unknown
Elevation
Unknown
Doppler factor
Unknown
Orbital elements
Apogee altitude
594.902 km
Perigee altitude
588.009 km
Semi-major axis
6,969.593 km
Eccentricity
0.00049
Inclination
97.7626°
RAAN
192.3215°
Arg. of periapsis
180.4249°
True anomaly
179.6969°
Mean anomaly
179.6966°
Eccentric anomaly
179.69675°
Mean motion
3.7302 °/min
Orbital period
96.51 mins
BSTAR
0.00016808
Loading maneuver chart data...
Computing Atmospheric mass density...
Loading historical data...
Loading historical data...
Loading historical data...
Loading historical data...
Loading historical data...
Loading historical data...
Loading historical data...

Documentation

Showing up to 5 results
|